Wetterdaten: Mittwoch, 10.07.2013
Datum Zeit Temperatur Luftfeuchte Luftdruck Regen Wind Richtung Richtung Taupunkt Windchill Windben
10.07.2013 00:00 14,9 C 87 % 1023,1 hPa 0,0 l/m 0,8 km/h (0 Bft) O 90 12,8 C 14,5 C 1,9 km/h (1 Bft)
10.07.2013 00:05 15,0 C 87 % 1023,0 hPa 0,0 l/m 1,1 km/h (1 Bft) O 90 12,9 C 14,5 C 2,1 km/h (1 Bft)
10.07.2013 00:10 14,8 C 87 % 1023,0 hPa 0,0 l/m 0,8 km/h (0 Bft) O-SO 112 12,7 C 14,5 C 0,0 km/h (0 Bft)
10.07.2013 00:15 14,6 C 87 % 1023,0 hPa 0,0 l/m 0,2 km/h (0 Bft) N-NO 22 12,5 C 14,4 C 0,0 km/h (0 Bft)
10.07.2013 00:20 14,4 C 87 % 1023,0 hPa 0,0 l/m 0,0 km/h (0 Bft) NO 45 12,3 C 14,2 C 0,0 km/h (0 Bft)
10.07.2013 00:25 14,4 C 87 % 1022,9 hPa 0,0 l/m 0,0 km/h (0 Bft) NO 45 12,3 C 14,1 C 0,0 km/h (0 Bft)
10.07.2013 00:30 14,5 C 88 % 1022,9 hPa 0,0 l/m 0,0 km/h (0 Bft) NO 45 12,5 C 14,0 C 0,0 km/h (0 Bft)
10.07.2013 00:35 14,4 C 88 % 1022,9 hPa 0,0 l/m 0,0 km/h (0 Bft) NO 45 12,4 C 14,0 C 0,0 km/h (0 Bft)
10.07.2013 00:40 14,6 C 88 % 1022,9 hPa 0,0 l/m 0,0 km/h (0 Bft) O 90 12,6 C 14,0 C 0,0 km/h (0 Bft)
10.07.2013 00:45 14,6 C 88 % 1022,7 hPa 0,0 l/m 0,2 km/h (0 Bft) NO 45 12,6 C 14,0 C 0,0 km/h (0 Bft)
10.07.2013 00:50 14,2 C 88 % 1022,7 hPa 0,0 l/m 0,2 km/h (0 Bft) O 90 12,2 C 13,8 C 2,3 km/h (1 Bft)
10.07.2013 00:55 14,0 C 88 % 1022,7 hPa 0,0 l/m 0,0 km/h (0 Bft) N-NW 337 12,0 C 13,7 C 0,0 km/h (0 Bft)
10.07.2013 01:00 13,7 C 88 % 1022,7 hPa 0,0 l/m 0,0 km/h (0 Bft) NO 45 11,7 C 13,5 C 0,0 km/h (0 Bft)
10.07.2013 01:05 13,8 C 88 % 1022,6 hPa 0,0 l/m 0,0 km/h (0 Bft) NO 45 11,8 C 13,5 C 0,0 km/h (0 Bft)
10.07.2013 01:10 14,0 C 88 % 1022,6 hPa 0,0 l/m 0,0 km/h (0 Bft) NO 45 12,0 C 13,7 C 0,0 km/h (0 Bft)
10.07.2013 01:15 14,2 C 88 % 1022,6 hPa 0,0 l/m 0,3 km/h (0 Bft) O 90 12,2 C 13,8 C 2,4 km/h (1 Bft)
10.07.2013 01:20 14,1 C 89 % 1022,6 hPa 0,0 l/m 0,6 km/h (0 Bft) W-SW 247 12,3 C 13,9 C 2,9 km/h (1 Bft)
10.07.2013 01:25 13,9 C 89 % 1022,4 hPa 0,0 l/m 0,6 km/h (0 Bft) W-SW 247 12,1 C 13,8 C 0,0 km/h (0 Bft)
10.07.2013 01:30 13,9 C 89 % 1022,4 hPa 0,0 l/m 0,0 km/h (0 Bft) W-SW 247 12,1 C 13,6 C 0,0 km/h (0 Bft)
10.07.2013 01:35 14,1 C 89 % 1022,4 hPa 0,0 l/m 0,6 km/h (0 Bft) O 90 12,3 C 13,6 C 1,8 km/h (1 Bft)
10.07.2013 01:40 13,9 C 89 % 1022,4 hPa 0,0 l/m 1,0 km/h (0 Bft) W-NW 292 12,1 C 13,7 C 3,4 km/h (1 Bft)
10.07.2013 01:45 13,8 C 89 % 1022,4 hPa 0,0 l/m 0,5 km/h (0 Bft) N-NO 22 12,0 C 13,6 C 0,0 km/h (0 Bft)
10.07.2013 01:50 13,8 C 89 % 1022,4 hPa 0,0 l/m 0,0 km/h (0 Bft) N-NO 22 12,0 C 13,4 C 0,0 km/h (0 Bft)
10.07.2013 01:55 13,7 C 89 % 1022,4 hPa 0,0 l/m 0,0 km/h (0 Bft) N-NO 22 11,9 C 13,4 C 0,0 km/h (0 Bft)
10.07.2013 02:00 13,8 C 89 % 1022,4 hPa 0,0 l/m 0,3 km/h (0 Bft) O 90 12,0 C 13,4 C 1,8 km/h (1 Bft)
10.07.2013 02:05 13,8 C 89 % 1022,3 hPa 0,0 l/m 0,3 km/h (0 Bft) O 90 12,0 C 13,4 C 0,0 km/h (0 Bft)
10.07.2013 02:10 13,8 C 89 % 1022,3 hPa 0,0 l/m 0,3 km/h (0 Bft) O-SO 112 12,0 C 13,4 C 0,0 km/h (0 Bft)
10.07.2013 02:15 13,8 C 89 % 1022,3 hPa 0,0 l/m 0,8 km/h (0 Bft) O 90 12,0 C 13,5 C 1,6 km/h (1 Bft)
10.07.2013 02:20 13,8 C 90 % 1022,3 hPa 0,0 l/m 1,4 km/h (1 Bft) O-SO 112 12,2 C 13,6 C 0,0 km/h (0 Bft)
10.07.2013 02:25 13,9 C 90 % 1021,9 hPa 0,0 l/m 1,1 km/h (1 Bft) O-SO 112 12,3 C 13,7 C 0,0 km/h (0 Bft)
10.07.2013 02:30 13,8 C 90 % 1021,9 hPa 0,0 l/m 0,3 km/h (0 Bft) NO 45 12,2 C 13,7 C 0,0 km/h (0 Bft)
10.07.2013 02:35 13,8 C 90 % 1021,9 hPa 0,0 l/m 0,0 km/h (0 Bft) O-SO 112 12,2 C 13,7 C 0,0 km/h (0 Bft)
10.07.2013 02:40 13,7 C 90 % 1021,9 hPa 0,0 l/m 0,2 km/h (0 Bft) W-NW 292 12,1 C 13,7 C 1,6 km/h (1 Bft)
10.07.2013 02:45 13,6 C 90 % 1021,9 hPa 0,0 l/m 0,2 km/h (0 Bft) W 270 12,0 C 13,6 C 1,6 km/h (1 Bft)
10.07.2013 02:50 13,8 C 90 % 1021,9 hPa 0,0 l/m 0,3 km/h (0 Bft) W-SW 247 12,2 C 13,6 C 1,9 km/h (1 Bft)
10.07.2013 02:55 13,9 C 90 % 1021,9 hPa 0,0 l/m 0,3 km/h (0 Bft) W-SW 247 12,3 C 13,6 C 0,0 km/h (0 Bft)
10.07.2013 03:00 14,1 C 89 % 1021,9 hPa 0,0 l/m 0,2 km/h (0 Bft) W-SW 247 12,3 C 13,7 C 0,0 km/h (0 Bft)
10.07.2013 03:05 14,1 C 89 % 1022,1 hPa 0,0 l/m 0,0 km/h (0 Bft) W-SW 247 12,3 C 13,8 C 0,0 km/h (0 Bft)
10.07.2013 03:10 14,2 C 89 % 1022,1 hPa 0,0 l/m 0,0 km/h (0 Bft) N-NW 337 12,4 C 13,8 C 0,0 km/h (0 Bft)
10.07.2013 03:15 14,2 C 89 % 1022,1 hPa 0,0 l/m 0,0 km/h (0 Bft) N-NW 337 12,4 C 13,8 C 0,0 km/h (0 Bft)
10.07.2013 03:20 14,2 C 89 % 1022,1 hPa 0,0 l/m 0,0 km/h (0 Bft) N-NW 337 12,4 C 13,8 C 0,0 km/h (0 Bft)
10.07.2013 03:25 14,2 C 89 % 1021,8 hPa 0,0 l/m 0,0 km/h (0 Bft) N-NW 337 12,4 C 13,9 C 0,0 km/h (0 Bft)
10.07.2013 03:30 14,2 C 89 % 1021,8 hPa 0,0 l/m 0,0 km/h (0 Bft) W-NW 292 12,4 C 13,9 C 0,0 km/h (0 Bft)
10.07.2013 03:35 14,1 C 89 % 1021,8 hPa 0,0 l/m 0,0 km/h (0 Bft) O 90 12,3 C 13,9 C 0,0 km/h (0 Bft)
10.07.2013 03:40 14,1 C 89 % 1021,8 hPa 0,0 l/m 0,0 km/h (0 Bft) S 180 12,3 C 13,9 C 0,0 km/h (0 Bft)
10.07.2013 03:45 14,1 C 89 % 1021,8 hPa 0,0 l/m 0,0 km/h (0 Bft) SO 135 12,3 C 13,8 C 0,0 km/h (0 Bft)
10.07.2013 03:50 14,1 C 89 % 1021,8 hPa 0,0 l/m 0,0 km/h (0 Bft) O 90 12,3 C 13,8 C 0,0 km/h (0 Bft)
10.07.2013 03:55 14,1 C 89 % 1021,8 hPa 0,0 l/m 0,0 km/h (0 Bft) O 90 12,3 C 13,7 C 0,0 km/h (0 Bft)
10.07.2013 04:00 14,1 C 89 % 1021,8 hPa 0,0 l/m 0,0 km/h (0 Bft) O-SO 112 12,3 C 13,7 C 0,0 km/h (0 Bft)
10.07.2013 04:05 14,0 C 89 % 1021,6 hPa 0,0 l/m 0,0 km/h (0 Bft) O-SO 112 12,2 C 13,7 C 0,0 km/h (0 Bft)
10.07.2013 04:10 14,1 C 89 % 1021,6 hPa 0,0 l/m 0,2 km/h (0 Bft) O-SO 112 12,3 C 13,8 C 0,0 km/h (0 Bft)
10.07.2013 04:15 14,1 C 89 % 1021,6 hPa 0,0 l/m 0,2 km/h (0 Bft) O-SO 112 12,3 C 13,7 C 0,0 km/h (0 Bft)
10.07.2013 04:20 14,1 C 89 % 1021,6 hPa 0,0 l/m 0,0 km/h (0 Bft) O-SO 112 12,3 C 13,8 C 0,0 km/h (0 Bft)
10.07.2013 04:25 14,1 C 89 % 1021,6 hPa 0,0 l/m 0,0 km/h (0 Bft) O-SO 112 12,3 C 13,8 C 0,0 km/h (0 Bft)
10.07.2013 04:30 14,2 C 89 % 1021,6 hPa 0,0 l/m 0,0 km/h (0 Bft) O 90 12,4 C 13,8 C 0,0 km/h (0 Bft)
10.07.2013 04:35 14,1 C 89 % 1021,6 hPa 0,0 l/m 0,0 km/h (0 Bft) O 90 12,3 C 13,8 C 0,0 km/h (0 Bft)
10.07.2013 04:40 14,1 C 89 % 1021,6 hPa 0,0 l/m 0,0 km/h (0 Bft) O-SO 112 12,3 C 13,8 C 0,0 km/h (0 Bft)
10.07.2013 04:45 14,1 C 89 % 1021,4 hPa 0,0 l/m 0,0 km/h (0 Bft) O 90 12,3 C 13,7 C 0,0 km/h (0 Bft)
10.07.2013 04:50 14,1 C 89 % 1021,4 hPa 0,0 l/m 0,0 km/h (0 Bft) O 90 12,3 C 13,7 C 0,0 km/h (0 Bft)
10.07.2013 04:55 14,1 C 89 % 1021,4 hPa 0,0 l/m 0,0 km/h (0 Bft) O 90 12,3 C 13,7 C 1,6 km/h (1 Bft)
10.07.2013 05:00 14,1 C 89 % 1021,4 hPa 0,0 l/m 0,0 km/h (0 Bft) S-SW 202 12,3 C 13,7 C 0,0 km/h (0 Bft)
10.07.2013 05:05 14,1 C 89 % 1021,4 hPa 0,0 l/m 0,0 km/h (0 Bft) S 180 12,3 C 13,7 C 0,0 km/h (0 Bft)
10.07.2013 05:10 14,1 C 89 % 1021,4 hPa 0,0 l/m 0,0 km/h (0 Bft) SO 135 12,3 C 13,7 C 0,0 km/h (0 Bft)
10.07.2013 05:15 14,1 C 89 % 1021,4 hPa 0,0 l/m 0,0 km/h (0 Bft) SO 135 12,3 C 13,7 C 0,0 km/h (0 Bft)
10.07.2013 05:20 13,9 C 89 % 1021,4 hPa 0,0 l/m 0,0 km/h (0 Bft) SO 135 12,1 C 13,6 C 0,0 km/h (0 Bft)
10.07.2013 05:25 13,9 C 89 % 1021,2 hPa 0,0 l/m 0,0 km/h (0 Bft) SO 135 12,1 C 13,5 C 0,0 km/h (0 Bft)
10.07.2013 05:30 13,8 C 89 % 1021,2 hPa 0,0 l/m 0,0 km/h (0 Bft) S-SW 202 12,0 C 13,4 C 0,0 km/h (0 Bft)
10.07.2013 05:35 13,8 C 89 % 1021,2 hPa 0,0 l/m 0,0 km/h (0 Bft) S-SW 202 12,0 C 13,5 C 0,0 km/h (0 Bft)
10.07.2013 05:40 13,8 C 89 % 1021,2 hPa 0,0 l/m 0,0 km/h (0 Bft) SO 135 12,0 C 13,4 C 0,0 km/h (0 Bft)
10.07.2013 05:45 13,8 C 89 % 1021,1 hPa 0,0 l/m 0,0 km/h (0 Bft) SO 135 12,0 C 13,4 C 0,0 km/h (0 Bft)
10.07.2013 05:50 13,9 C 89 % 1021,1 hPa 0,0 l/m 0,0 km/h (0 Bft) SO 135 12,1 C 13,5 C 0,0 km/h (0 Bft)
10.07.2013 05:55 13,9 C 89 % 1021,1 hPa 0,0 l/m 0,0 km/h (0 Bft) SO 135 12,1 C 13,5 C 0,0 km/h (0 Bft)
10.07.2013 06:00 13,9 C 89 % 1021,1 hPa 0,0 l/m 0,0 km/h (0 Bft) SO 135 12,1 C 13,5 C 0,0 km/h (0 Bft)
10.07.2013 06:05 13,9 C 89 % 1021,2 hPa 0,0 l/m 0,0 km/h (0 Bft) SO 135 12,1 C 13,6 C 0,0 km/h (0 Bft)
10.07.2013 06:10 14,0 C 89 % 1021,2 hPa 0,0 l/m 0,0 km/h (0 Bft) SO 135 12,2 C 13,6 C 0,0 km/h (0 Bft)
10.07.2013 06:15 14,1 C 89 % 1021,2 hPa 0,0 l/m 0,0 km/h (0 Bft) SO 135 12,3 C 13,6 C 0,0 km/h (0 Bft)
10.07.2013 06:20 14,2 C 89 % 1021,2 hPa 0,0 l/m 0,0 km/h (0 Bft) SO 135 12,4 C 13,7 C 0,0 km/h (0 Bft)
10.07.2013 06:25 14,3 C 89 % 1021,2 hPa 0,0 l/m 0,0 km/h (0 Bft) SO 135 12,5 C 13,8 C 0,0 km/h (0 Bft)
10.07.2013 06:30 14,4 C 89 % 1021,2 hPa 0,0 l/m 0,0 km/h (0 Bft) O-SO 112 12,6 C 14,0 C 0,0 km/h (0 Bft)
10.07.2013 06:35 14,6 C 89 % 1021,2 hPa 0,0 l/m 0,0 km/h (0 Bft) O-SO 112 12,8 C 14,0 C 0,0 km/h (0 Bft)
10.07.2013 06:40 14,7 C 89 % 1021,2 hPa 0,0 l/m 0,0 km/h (0 Bft) SO 135 12,9 C 14,2 C 0,0 km/h (0 Bft)
10.07.2013 06:45 14,9 C 89 % 1021,2 hPa 0,0 l/m 0,0 km/h (0 Bft) S 180 13,1 C 14,3 C 0,0 km/h (0 Bft)
10.07.2013 06:50 15,1 C 88 % 1021,2 hPa 0,0 l/m 0,0 km/h (0 Bft) O-SO 112 13,1 C 14,5 C 0,0 km/h (0 Bft)
10.07.2013 06:55 15,2 C 88 % 1021,2 hPa 0,0 l/m 0,0 km/h (0 Bft) O-SO 112 13,2 C 14,7 C 0,0 km/h (0 Bft)
10.07.2013 07:00 15,3 C 88 % 1021,2 hPa 0,0 l/m 0,0 km/h (0 Bft) O-SO 112 13,3 C 14,8 C 0,0 km/h (0 Bft)
10.07.2013 07:05 15,4 C 88 % 1021,0 hPa 0,0 l/m 0,0 km/h (0 Bft) O-SO 112 13,4 C 14,9 C 0,0 km/h (0 Bft)
10.07.2013 07:10 16,0 C 87 % 1021,0 hPa 0,0 l/m 0,0 km/h (0 Bft) O-SO 112 13,8 C 15,1 C 0,0 km/h (0 Bft)
10.07.2013 07:15 16,6 C 87 % 1021,0 hPa 0,0 l/m 0,0 km/h (0 Bft) O-SO 112 14,4 C 15,4 C 0,0 km/h (0 Bft)
10.07.2013 07:20 19,5 C 82 % 1021,0 hPa 0,0 l/m 0,0 km/h (0 Bft) S-SW 202 16,3 C 17,5 C 0,0 km/h (0 Bft)
10.07.2013 07:25 19,9 C 79 % 1021,1 hPa 0,0 l/m 0,0 km/h (0 Bft) SO 135 16,1 C 19,2 C 0,0 km/h (0 Bft)
10.07.2013 07:30 19,6 C 77 % 1021,1 hPa 0,0 l/m 0,0 km/h (0 Bft) SW 225 15,5 C 20,2 C 0,0 km/h (0 Bft)
10.07.2013 07:35 21,0 C 74 % 1021,1 hPa 0,0 l/m 0,0 km/h (0 Bft) O-SO 112 16,2 C 21,0 C 0,0 km/h (0 Bft)
10.07.2013 07:40 23,1 C 69 % 1021,1 hPa 0,0 l/m 1,0 km/h (0 Bft) SO 135 17,1 C 22,4 C 2,4 km/h (1 Bft)
10.07.2013 07:45 22,6 C 69 % 1021,1 hPa 0,0 l/m 1,1 km/h (1 Bft) O-SO 112 16,6 C 22,7 C 2,1 km/h (1 Bft)
10.07.2013 07:50 21,6 C 69 % 1021,1 hPa 0,0 l/m 0,8 km/h (0 Bft) S-SO 157 15,7 C 22,8 C 0,0 km/h (0 Bft)
10.07.2013 07:55 22,3 C 69 % 1021,1 hPa 0,0 l/m 0,8 km/h (0 Bft) S-SW 202 16,3 C 22,4 C 2,1 km/h (1 Bft)
10.07.2013 08:00 23,9 C 63 % 1021,1 hPa 0,0 l/m 1,3 km/h (1 Bft) W-SW 247 16,4 C 23,3 C 4,2 km/h (1 Bft)
10.07.2013 08:05 24,1 C 59 % 1021,2 hPa 0,0 l/m 1,3 km/h (1 Bft) S 180 15,6 C 24,0 C 2,4 km/h (1 Bft)
10.07.2013 08:10 24,7 C 59 % 1021,2 hPa 0,0 l/m 1,3 km/h (1 Bft) S-SW 202 16,1 C 24,8 C 0,0 km/h (0 Bft)
10.07.2013 08:15 25,5 C 58 % 1021,2 hPa 0,0 l/m 0,8 km/h (0 Bft) W-SW 247 16,6 C 25,6 C 2,9 km/h (1 Bft)
10.07.2013 08:20 22,7 C 61 % 1021,2 hPa 0,0 l/m 2,3 km/h (1 Bft) S 180 14,8 C 24,9 C 6,6 km/h (2 Bft)
10.07.2013 08:25 21,4 C 64 % 1021,7 hPa 0,0 l/m 3,4 km/h (1 Bft) W-SW 247 14,3 C 23,7 C 3,7 km/h (1 Bft)
10.07.2013 08:30 20,6 C 67 % 1021,7 hPa 0,0 l/m 3,2 km/h (1 Bft) S 180 14,3 C 22,3 C 2,3 km/h (1 Bft)
10.07.2013 08:35 20,9 C 68 % 1021,7 hPa 0,0 l/m 2,6 km/h (1 Bft) W-SW 247 14,8 C 21,9 C 1,9 km/h (1 Bft)
10.07.2013 08:40 20,8 C 68 % 1021,7 hPa 0,0 l/m 1,3 km/h (1 Bft) S 180 14,7 C 21,8 C 2,6 km/h (1 Bft)
10.07.2013 08:45 20,6 C 69 % 1021,8 hPa 0,0 l/m 1,0 km/h (0 Bft) S-SW 202 14,7 C 21,8 C 2,1 km/h (1 Bft)
10.07.2013 08:50 20,8 C 69 % 1021,8 hPa 0,0 l/m 1,6 km/h (1 Bft) W-SW 247 14,9 C 21,8 C 2,6 km/h (1 Bft)
10.07.2013 08:55 21,1 C 68 % 1021,8 hPa 0,0 l/m 2,1 km/h (1 Bft) W-SW 247 15,0 C 21,8 C 2,7 km/h (1 Bft)
10.07.2013 09:00 21,3 C 68 % 1021,8 hPa 0,0 l/m 2,3 km/h (1 Bft) S 180 15,1 C 21,8 C 2,1 km/h (1 Bft)
10.07.2013 09:05 21,3 C 67 % 1022,0 hPa 0,0 l/m 2,4 km/h (1 Bft) S-SO 157 14,9 C 22,0 C 3,9 km/h (1 Bft)
10.07.2013 09:10 21,1 C 66 % 1022,0 hPa 0,0 l/m 2,6 km/h (1 Bft) SW 225 14,5 C 22,0 C 1,9 km/h (1 Bft)
10.07.2013 09:15 21,2 C 67 % 1022,0 hPa 0,0 l/m 2,3 km/h (1 Bft) S 180 14,8 C 22,1 C 2,9 km/h (1 Bft)
10.07.2013 09:20 21,6 C 66 % 1022,0 hPa 0,0 l/m 1,4 km/h (1 Bft) S 180 15,0 C 22,5 C 0,0 km/h (0 Bft)
10.07.2013 09:25 21,5 C 64 % 1021,9 hPa 0,0 l/m 1,6 km/h (1 Bft) S 180 14,4 C 22,6 C 2,9 km/h (1 Bft)
10.07.2013 09:30 21,7 C 64 % 1021,9 hPa 0,0 l/m 1,0 km/h (0 Bft) W-SW 247 14,6 C 23,1 C 2,1 km/h (1 Bft)
10.07.2013 09:35 21,4 C 65 % 1021,9 hPa 0,0 l/m 1,6 km/h (1 Bft) W-SW 247 14,5 C 23,2 C 3,5 km/h (1 Bft)
10.07.2013 09:40 21,6 C 64 % 1021,9 hPa 0,0 l/m 1,8 km/h (1 Bft) S 180 14,5 C 23,2 C 1,8 km/h (1 Bft)
10.07.2013 09:45 22,0 C 64 % 1021,9 hPa 0,0 l/m 1,3 km/h (1 Bft) S-SW 202 14,9 C 23,4 C 0,0 km/h (0 Bft)
10.07.2013 09:50 22,5 C 62 % 1021,9 hPa 0,0 l/m 0,8 km/h (0 Bft) W-SW 247 14,8 C 24,0 C 0,0 km/h (0 Bft)
10.07.2013 09:55 22,4 C 62 % 1021,9 hPa 0,0 l/m 0,8 km/h (0 Bft) W-SW 247 14,8 C 24,5 C 2,4 km/h (1 Bft)
10.07.2013 10:00 22,5 C 62 % 1021,9 hPa 0,0 l/m 0,8 km/h (0 Bft) S 180 14,8 C 24,6 C 0,0 km/h (0 Bft)
10.07.2013 10:05 23,6 C 60 % 1021,9 hPa 0,0 l/m 1,4 km/h (1 Bft) S 180 15,4 C 24,9 C 4,0 km/h (1 Bft)
10.07.2013 10:10 22,7 C 59 % 1021,9 hPa 0,0 l/m 1,9 km/h (1 Bft) O-SO 112 14,3 C 24,9 C 2,1 km/h (1 Bft)
10.07.2013 10:15 24,0 C 58 % 1021,9 hPa 0,0 l/m 1,4 km/h (1 Bft) O-SO 112 15,2 C 25,0 C 0,0 km/h (0 Bft)
10.07.2013 10:20 25,0 C 56 % 1021,9 hPa 0,0 l/m 0,8 km/h (0 Bft) NO 45 15,6 C 26,5 C 1,8 km/h (1 Bft)
10.07.2013 10:25 24,3 C 56 % 1021,9 hPa 0,0 l/m 1,0 km/h (0 Bft) SW 225 14,9 C 27,4 C 2,6 km/h (1 Bft)
10.07.2013 10:30 25,5 C 56 % 1021,9 hPa 0,0 l/m 1,6 km/h (1 Bft) SW 225 16,1 C 27,4 C 2,9 km/h (1 Bft)
10.07.2013 10:35 25,7 C 49 % 1021,9 hPa 0,0 l/m 2,6 km/h (1 Bft) W-SW 247 14,2 C 27,4 C 3,5 km/h (1 Bft)
10.07.2013 10:40 23,5 C 55 % 1021,9 hPa 0,0 l/m 3,7 km/h (1 Bft) W-SW 247 13,9 C 26,2 C 7,1 km/h (2 Bft)
10.07.2013 10:45 22,3 C 58 % 1021,7 hPa 0,0 l/m 3,4 km/h (1 Bft) W-SW 247 13,6 C 24,8 C 0,0 km/h (0 Bft)
10.07.2013 10:50 22,2 C 60 % 1021,7 hPa 0,0 l/m 1,6 km/h (1 Bft) SW 225 14,1 C 23,7 C 0,0 km/h (0 Bft)
10.07.2013 10:55 22,1 C 60 % 1021,7 hPa 0,0 l/m 0,8 km/h (0 Bft) O 90 14,0 C 23,3 C 1,9 km/h (1 Bft)
10.07.2013 11:00 23,6 C 59 % 1021,7 hPa 0,0 l/m 1,0 km/h (0 Bft) S 180 15,1 C 23,6 C 1,6 km/h (1 Bft)
10.07.2013 11:05 25,2 C 54 % 1021,4 hPa 0,0 l/m 1,8 km/h (1 Bft) W-SW 247 15,2 C 24,7 C 3,2 km/h (1 Bft)
10.07.2013 11:10 25,8 C 49 % 1021,4 hPa 0,0 l/m 2,7 km/h (1 Bft) W-SW 247 14,3 C 26,4 C 3,1 km/h (1 Bft)
10.07.2013 11:15 25,9 C 49 % 1021,4 hPa 0,0 l/m 2,3 km/h (1 Bft) W-SW 247 14,4 C 27,2 C 2,6 km/h (1 Bft)
10.07.2013 11:20 26,0 C 44 % 1021,4 hPa 0,0 l/m 1,9 km/h (1 Bft) N 360 12,8 C 28,6 C 2,4 km/h (1 Bft)
10.07.2013 11:25 25,9 C 47 % 1022,0 hPa 0,0 l/m 2,7 km/h (1 Bft) NW 315 13,7 C 28,4 C 7,2 km/h (2 Bft)
10.07.2013 11:30 25,8 C 46 % 1022,0 hPa 0,0 l/m 4,5 km/h (1 Bft) W-NW 292 13,3 C 28,1 C 8,4 km/h (2 Bft)
10.07.2013 11:35 26,7 C 46 % 1022,0 hPa 0,0 l/m 4,0 km/h (1 Bft) N-NO 22 14,1 C 28,4 C 5,0 km/h (1 Bft)
10.07.2013 11:40 26,5 C 44 % 1022,0 hPa 0,0 l/m 3,2 km/h (1 Bft) N 360 13,2 C 28,5 C 5,3 km/h (1 Bft)
10.07.2013 11:45 26,8 C 44 % 1021,8 hPa 0,0 l/m 3,2 km/h (1 Bft) N-NO 22 13,5 C 28,7 C 3,9 km/h (1 Bft)
10.07.2013 11:50 26,7 C 42 % 1021,8 hPa 0,0 l/m 3,2 km/h (1 Bft) S-SW 202 12,7 C 29,0 C 4,5 km/h (1 Bft)
10.07.2013 11:55 24,6 C 48 % 1021,8 hPa 0,0 l/m 3,7 km/h (1 Bft) NW 315 12,8 C 27,9 C 7,9 km/h (2 Bft)
10.07.2013 12:00 23,4 C 51 % 1021,8 hPa 0,0 l/m 3,4 km/h (1 Bft) W-NW 292 12,7 C 26,1 C 2,6 km/h (1 Bft)
10.07.2013 12:05 23,2 C 50 % 1021,9 hPa 0,0 l/m 2,7 km/h (1 Bft) N 360 12,2 C 25,5 C 4,5 km/h (1 Bft)
10.07.2013 12:10 25,1 C 47 % 1021,9 hPa 0,0 l/m 2,1 km/h (1 Bft) O 90 13,0 C 26,0 C 4,3 km/h (1 Bft)
10.07.2013 12:15 26,9 C 46 % 1021,9 hPa 0,0 l/m 2,4 km/h (1 Bft) N-NW 337 14,3 C 27,4 C 2,7 km/h (1 Bft)
10.07.2013 12:20 26,8 C 44 % 1021,9 hPa 0,0 l/m 3,4 km/h (1 Bft) W 270 13,5 C 28,6 C 3,4 km/h (1 Bft)
10.07.2013 12:25 24,7 C 48 % 1021,8 hPa 0,0 l/m 2,7 km/h (1 Bft) N-NW 337 12,9 C 28,3 C 5,5 km/h (1 Bft)
10.07.2013 12:30 23,6 C 52 % 1021,8 hPa 0,0 l/m 2,9 km/h (1 Bft) W-SW 247 13,2 C 26,7 C 5,5 km/h (1 Bft)
10.07.2013 12:35 23,3 C 54 % 1021,8 hPa 0,0 l/m 3,4 km/h (1 Bft) W 270 13,5 C 25,7 C 2,6 km/h (1 Bft)
10.07.2013 12:40 23,3 C 53 % 1021,8 hPa 0,0 l/m 3,1 km/h (1 Bft) W-SW 247 13,2 C 25,0 C 6,3 km/h (2 Bft)
10.07.2013 12:45 23,8 C 51 % 1021,8 hPa 0,0 l/m 2,9 km/h (1 Bft) W-SW 247 13,0 C 25,0 C 3,4 km/h (1 Bft)
10.07.2013 12:50 24,8 C 47 % 1021,8 hPa 0,0 l/m 2,7 km/h (1 Bft) NW 315 12,7 C 26,4 C 4,3 km/h (1 Bft)
10.07.2013 12:55 24,4 C 49 % 1021,8 hPa 0,0 l/m 2,4 km/h (1 Bft) W 270 13,0 C 26,5 C 2,3 km/h (1 Bft)
10.07.2013 13:00 23,6 C 51 % 1021,8 hPa 0,0 l/m 2,4 km/h (1 Bft) W-SW 247 12,9 C 26,1 C 5,1 km/h (1 Bft)
10.07.2013 13:05 24,7 C 52 % 1021,7 hPa 0,0 l/m 2,4 km/h (1 Bft) W-SW 247 14,2 C 25,8 C 4,8 km/h (1 Bft)
10.07.2013 13:10 26,3 C 47 % 1021,7 hPa 0,0 l/m 3,2 km/h (1 Bft) SW 225 14,1 C 27,2 C 8,7 km/h (2 Bft)
10.07.2013 13:15 26,3 C 44 % 1021,7 hPa 0,0 l/m 4,5 km/h (1 Bft) W-SW 247 13,1 C 27,5 C 8,2 km/h (2 Bft)
10.07.2013 13:20 25,5 C 49 % 1021,7 hPa 0,0 l/m 6,1 km/h (2 Bft) W-NW 292 14,0 C 27,3 C 11,4 km/h (2 Bft)
10.07.2013 13:25 25,7 C 46 % 1021,7 hPa 0,0 l/m 6,6 km/h (2 Bft) W-NW 292 13,2 C 27,1 C 10,3 km/h (2 Bft)
10.07.2013 13:30 26,2 C 42 % 1021,7 hPa 0,0 l/m 6,4 km/h (2 Bft) N 360 12,3 C 27,2 C 11,9 km/h (2 Bft)
10.07.2013 13:35 26,0 C 43 % 1021,7 hPa 0,0 l/m 6,0 km/h (2 Bft) W 270 12,4 C 27,3 C 5,5 km/h (1 Bft)
10.07.2013 13:40 26,6 C 42 % 1021,7 hPa 0,0 l/m 3,7 km/h (1 Bft) NW 315 12,6 C 28,1 C 4,0 km/h (1 Bft)
10.07.2013 13:45 26,9 C 42 % 1021,6 hPa 0,0 l/m 2,6 km/h (1 Bft) W 270 12,9 C 28,6 C 2,6 km/h (1 Bft)
10.07.2013 13:50 26,2 C 41 % 1021,6 hPa 0,0 l/m 2,9 km/h (1 Bft) W-NW 292 11,9 C 29,1 C 8,0 km/h (2 Bft)
10.07.2013 13:55 25,7 C 45 % 1021,6 hPa 0,0 l/m 4,0 km/h (1 Bft) W 270 12,9 C 28,3 C 4,3 km/h (1 Bft)
10.07.2013 14:00 24,3 C 47 % 1021,6 hPa 0,0 l/m 5,6 km/h (1 Bft) W-SW 247 12,3 C 26,8 C 11,9 km/h (2 Bft)
10.07.2013 14:05 25,5 C 46 % 1021,6 hPa 0,0 l/m 5,3 km/h (1 Bft) W-NW 292 13,0 C 26,3 C 6,3 km/h (2 Bft)
10.07.2013 14:10 24,8 C 47 % 1021,6 hPa 0,0 l/m 6,1 km/h (2 Bft) N-NW 337 12,7 C 26,9 C 7,9 km/h (2 Bft)
10.07.2013 14:15 24,1 C 48 % 1021,6 hPa 0,0 l/m 4,5 km/h (1 Bft) N 360 12,4 C 26,5 C 6,4 km/h (2 Bft)
10.07.2013 14:20 24,7 C 49 % 1021,6 hPa 0,0 l/m 3,2 km/h (1 Bft) W-NW 292 13,3 C 26,0 C 2,3 km/h (1 Bft)
10.07.2013 14:25 24,9 C 48 % 1021,5 hPa 0,0 l/m 2,6 km/h (1 Bft) W-NW 292 13,1 C 26,8 C 4,8 km/h (1 Bft)
10.07.2013 14:30 25,5 C 47 % 1021,5 hPa 0,0 l/m 2,9 km/h (1 Bft) S-SW 202 13,3 C 27,9 C 6,0 km/h (2 Bft)
10.07.2013 14:35 24,6 C 48 % 1021,5 hPa 0,0 l/m 4,0 km/h (1 Bft) W-NW 292 12,8 C 27,2 C 9,0 km/h (2 Bft)
10.07.2013 14:40 24,0 C 51 % 1021,5 hPa 0,0 l/m 3,7 km/h (1 Bft) W-NW 292 13,2 C 25,9 C 0,0 km/h (0 Bft)
10.07.2013 14:45 24,0 C 52 % 1021,4 hPa 0,0 l/m 3,1 km/h (1 Bft) S-SW 202 13,5 C 25,6 C 2,9 km/h (1 Bft)
10.07.2013 14:50 23,9 C 52 % 1021,4 hPa 0,0 l/m 1,8 km/h (1 Bft) O-SO 112 13,4 C 25,4 C 0,0 km/h (0 Bft)
10.07.2013 14:55 24,1 C 51 % 1021,4 hPa 0,0 l/m 1,4 km/h (1 Bft) N 360 13,3 C 25,7 C 3,5 km/h (1 Bft)
10.07.2013 15:00 26,4 C 47 % 1021,4 hPa 0,0 l/m 1,3 km/h (1 Bft) N-NW 337 14,2 C 27,4 C 4,3 km/h (1 Bft)
10.07.2013 15:05 24,7 C 45 % 1021,2 hPa 0,0 l/m 2,1 km/h (1 Bft) SW 225 12,0 C 28,0 C 3,4 km/h (1 Bft)
10.07.2013 15:10 24,4 C 48 % 1021,2 hPa 0,0 l/m 3,9 km/h (1 Bft) W 270 12,7 C 27,0 C 6,4 km/h (2 Bft)
10.07.2013 15:15 24,4 C 49 % 1021,2 hPa 0,0 l/m 3,5 km/h (1 Bft) N 360 13,0 C 26,7 C 4,8 km/h (1 Bft)
10.07.2013 15:20 23,9 C 50 % 1021,2 hPa 0,0 l/m 3,5 km/h (1 Bft) W-NW 292 12,8 C 26,6 C 4,7 km/h (1 Bft)
10.07.2013 15:25 24,0 C 49 % 1021,1 hPa 0,0 l/m 3,7 km/h (1 Bft) W 270 12,6 C 26,4 C 4,2 km/h (1 Bft)
10.07.2013 15:30 25,0 C 48 % 1021,1 hPa 0,0 l/m 3,7 km/h (1 Bft) W 270 13,2 C 26,0 C 5,5 km/h (1 Bft)
10.07.2013 15:35 26,0 C 41 % 1021,1 hPa 0,0 l/m 3,5 km/h (1 Bft) N-NW 337 11,7 C 27,2 C 3,7 km/h (1 Bft)
10.07.2013 15:40 26,1 C 42 % 1021,1 hPa 0,0 l/m 3,7 km/h (1 Bft) N-NW 337 12,2 C 28,8 C 4,8 km/h (1 Bft)
10.07.2013 15:45 24,7 C 47 % 1020,9 hPa 0,0 l/m 4,0 km/h (1 Bft) W 270 12,6 C 28,3 C 4,2 km/h (1 Bft)
10.07.2013 15:50 23,8 C 49 % 1020,9 hPa 0,0 l/m 4,0 km/h (1 Bft) N-NW 337 12,4 C 26,6 C 2,4 km/h (1 Bft)
10.07.2013 15:55 23,4 C 50 % 1020,9 hPa 0,0 l/m 4,2 km/h (1 Bft) N 360 12,4 C 26,1 C 6,1 km/h (2 Bft)
10.07.2013 16:00 25,0 C 51 % 1020,9 hPa 0,0 l/m 4,0 km/h (1 Bft) N-NW 337 14,1 C 25,6 C 3,9 km/h (1 Bft)
10.07.2013 16:05 26,1 C 44 % 1020,9 hPa 0,0 l/m 3,9 km/h (1 Bft) NO 45 12,9 C 26,9 C 3,4 km/h (1 Bft)
10.07.2013 16:10 25,5 C 46 % 1020,9 hPa 0,0 l/m 4,7 km/h (1 Bft) NO 45 13,0 C 27,9 C 4,2 km/h (1 Bft)
10.07.2013 16:15 24,1 C 48 % 1020,9 hPa 0,0 l/m 4,8 km/h (1 Bft) N-NW 337 12,4 C 28,0 C 7,7 km/h (2 Bft)
10.07.2013 16:20 23,8 C 50 % 1020,9 hPa 0,0 l/m 3,1 km/h (1 Bft) W-SW 247 12,7 C 26,7 C 3,9 km/h (1 Bft)
10.07.2013 16:25 24,1 C 50 % 1020,8 hPa 0,0 l/m 2,7 km/h (1 Bft) S 180 13,0 C 26,4 C 5,1 km/h (1 Bft)
10.07.2013 16:30 23,9 C 49 % 1020,8 hPa 0,0 l/m 3,1 km/h (1 Bft) S 180 12,5 C 25,7 C 2,4 km/h (1 Bft)
10.07.2013 16:35 24,2 C 52 % 1020,8 hPa 0,0 l/m 2,9 km/h (1 Bft) S 180 13,7 C 25,7 C 1,9 km/h (1 Bft)
10.07.2013 16:40 26,2 C 44 % 1020,8 hPa 0,0 l/m 1,8 km/h (1 Bft) NW 315 13,0 C 27,5 C 3,4 km/h (1 Bft)
10.07.2013 16:45 25,4 C 47 % 1020,8 hPa 0,0 l/m 2,7 km/h (1 Bft) N-NW 337 13,3 C 28,2 C 3,7 km/h (1 Bft)
10.07.2013 16:50 24,9 C 45 % 1020,8 hPa 0,0 l/m 4,7 km/h (1 Bft) W-SW 247 12,1 C 27,4 C 7,4 km/h (2 Bft)
10.07.2013 16:55 25,0 C 46 % 1020,8 hPa 0,0 l/m 4,7 km/h (1 Bft) N-NW 337 12,6 C 28,1 C 6,0 km/h (2 Bft)
10.07.2013 17:00 24,4 C 48 % 1020,8 hPa 0,0 l/m 3,9 km/h (1 Bft) S-SW 202 12,7 C 28,7 C 6,3 km/h (2 Bft)
10.07.2013 17:05 24,0 C 47 % 1020,7 hPa 0,7 l/m 3,7 km/h (1 Bft) S 180 12,0 C 27,7 C 4,8 km/h (1 Bft)
10.07.2013 17:10 23,6 C 48 % 1020,7 hPa 0,0 l/m 3,9 km/h (1 Bft) SW 225 11,9 C 26,2 C 3,5 km/h (1 Bft)
10.07.2013 17:15 23,5 C 49 % 1020,7 hPa 0,0 l/m 3,5 km/h (1 Bft) W-SW 247 12,2 C 25,6 C 4,8 km/h (1 Bft)
10.07.2013 17:20 23,6 C 50 % 1020,7 hPa 0,0 l/m 3,2 km/h (1 Bft) W 270 12,6 C 25,2 C 7,4 km/h (2 Bft)
10.07.2013 17:25 24,2 C 49 % 1020,4 hPa 0,0 l/m 3,4 km/h (1 Bft) NO 45 12,8 C 26,0 C 0,0 km/h (0 Bft)
10.07.2013 17:30 23,8 C 49 % 1020,4 hPa 0,0 l/m 3,1 km/h (1 Bft) N-NW 337 12,4 C 27,8 C 4,3 km/h (1 Bft)
10.07.2013 17:35 23,5 C 48 % 1020,4 hPa 0,0 l/m 2,7 km/h (1 Bft) N-NO 22 11,8 C 27,3 C 4,8 km/h (1 Bft)
10.07.2013 17:40 24,3 C 48 % 1020,4 hPa 0,0 l/m 3,1 km/h (1 Bft) W-SW 247 12,6 C 28,2 C 2,7 km/h (1 Bft)
10.07.2013 17:45 24,8 C 48 % 1020,2 hPa 0,0 l/m 3,7 km/h (1 Bft) S-SW 202 13,0 C 28,9 C 8,4 km/h (2 Bft)
10.07.2013 17:50 24,7 C 49 % 1020,2 hPa 0,0 l/m 4,2 km/h (1 Bft) W 270 13,3 C 29,3 C 6,6 km/h (2 Bft)
10.07.2013 17:55 24,5 C 47 % 1020,2 hPa 0,0 l/m 4,7 km/h (1 Bft) W 270 12,4 C 29,4 C 2,3 km/h (1 Bft)
10.07.2013 18:00 24,1 C 48 % 1020,2 hPa 0,0 l/m 3,5 km/h (1 Bft) NW 315 12,4 C 28,9 C 2,6 km/h (1 Bft)
10.07.2013 18:05 24,2 C 49 % 1020,2 hPa 0,0 l/m 3,5 km/h (1 Bft) S-SW 202 12,8 C 28,7 C 4,8 km/h (1 Bft)
10.07.2013 18:10 24,3 C 48 % 1020,2 hPa 0,0 l/m 4,0 km/h (1 Bft) W-NW 292 12,6 C 28,9 C 2,4 km/h (1 Bft)
10.07.2013 18:15 23,8 C 49 % 1020,2 hPa 0,0 l/m 4,0 km/h (1 Bft) W 270 12,4 C 28,9 C 6,8 km/h (2 Bft)
10.07.2013 18:20 23,8 C 49 % 1020,2 hPa 0,0 l/m 4,2 km/h (1 Bft) N-NO 22 12,4 C 28,2 C 6,3 km/h (2 Bft)
10.07.2013 18:25 23,8 C 49 % 1019,9 hPa 0,0 l/m 4,8 km/h (1 Bft) W 270 12,4 C 28,1 C 6,3 km/h (2 Bft)
10.07.2013 18:30 23,7 C 49 % 1019,9 hPa 0,0 l/m 4,5 km/h (1 Bft) W 270 12,3 C 27,2 C 4,8 km/h (1 Bft)
10.07.2013 18:35 23,5 C 50 % 1019,9 hPa 0,0 l/m 3,7 km/h (1 Bft) W 270 12,5 C 26,6 C 4,2 km/h (1 Bft)
10.07.2013 18:40 23,1 C 50 % 1019,9 hPa 0,0 l/m 4,2 km/h (1 Bft) N-NW 337 12,1 C 25,8 C 7,4 km/h (2 Bft)
10.07.2013 18:45 23,4 C 49 % 1019,7 hPa 0,0 l/m 4,2 km/h (1 Bft) W-SW 247 12,1 C 26,5 C 0,0 km/h (0 Bft)
10.07.2013 18:50 23,3 C 49 % 1019,7 hPa 0,0 l/m 4,0 km/h (1 Bft) W-NW 292 12,0 C 26,9 C 6,1 km/h (2 Bft)
10.07.2013 18:55 23,1 C 50 % 1019,7 hPa 0,0 l/m 3,2 km/h (1 Bft) N 360 12,1 C 26,4 C 4,2 km/h (1 Bft)
10.07.2013 19:00 23,1 C 52 % 1019,7 hPa 0,0 l/m 2,1 km/h (1 Bft) NO 45 12,7 C 27,2 C 0,0 km/h (0 Bft)
10.07.2013 19:05 23,1 C 53 % 1019,3 hPa 0,0 l/m 1,8 km/h (1 Bft) W-SW 247 13,0 C 27,6 C 0,0 km/h (0 Bft)
10.07.2013 19:10 23,0 C 52 % 1019,3 hPa 0,0 l/m 2,4 km/h (1 Bft) NW 315 12,6 C 28,0 C 6,0 km/h (2 Bft)
10.07.2013 19:15 22,8 C 53 % 1019,3 hPa 0,0 l/m 2,6 km/h (1 Bft) S 180 12,7 C 27,8 C 3,7 km/h (1 Bft)
10.07.2013 19:20 22,7 C 53 % 1019,3 hPa 0,0 l/m 3,4 km/h (1 Bft) N-NW 337 12,6 C 27,5 C 5,5 km/h (1 Bft)
10.07.2013 19:25 22,6 C 52 % 1019,2 hPa 0,0 l/m 3,1 km/h (1 Bft) N-NW 337 12,2 C 27,2 C 0,0 km/h (0 Bft)
10.07.2013 19:30 22,4 C 53 % 1019,2 hPa 0,0 l/m 2,7 km/h (1 Bft) NO 45 12,3 C 27,0 C 2,6 km/h (1 Bft)
10.07.2013 19:35 22,2 C 54 % 1019,2 hPa 0,0 l/m 2,4 km/h (1 Bft) N-NW 337 12,4 C 27,1 C 2,3 km/h (1 Bft)
10.07.2013 19:40 22,2 C 54 % 1019,2 hPa 0,0 l/m 1,8 km/h (1 Bft) W-NW 292 12,4 C 26,9 C 2,1 km/h (1 Bft)
10.07.2013 19:45 22,2 C 53 % 1019,2 hPa 0,0 l/m 1,4 km/h (1 Bft) N-NO 22 12,2 C 26,8 C 0,0 km/h (0 Bft)
10.07.2013 19:50 22,0 C 53 % 1019,2 hPa 0,0 l/m 0,6 km/h (0 Bft) N-NO 22 12,0 C 27,1 C 0,0 km/h (0 Bft)
10.07.2013 19:55 21,8 C 55 % 1019,2 hPa 0,0 l/m 0,5 km/h (0 Bft) NO 45 12,4 C 27,1 C 2,1 km/h (1 Bft)
10.07.2013 20:00 21,7 C 55 % 1019,2 hPa 0,0 l/m 0,6 km/h (0 Bft) O 90 12,3 C 27,1 C 2,6 km/h (1 Bft)
10.07.2013 20:05 21,6 C 55 % 1019,0 hPa 0,0 l/m 1,3 km/h (1 Bft) NO 45 12,2 C 26,7 C 3,1 km/h (1 Bft)
10.07.2013 20:10 21,2 C 56 % 1019,0 hPa 0,0 l/m 1,9 km/h (1 Bft) NO 45 12,1 C 25,9 C 1,9 km/h (1 Bft)
10.07.2013 20:15 21,0 C 56 % 1019,0 hPa 0,0 l/m 2,3 km/h (1 Bft) O-NO 67 11,9 C 25,4 C 3,2 km/h (1 Bft)
10.07.2013 20:20 20,9 C 56 % 1019,0 hPa 0,0 l/m 2,3 km/h (1 Bft) NO 45 11,8 C 24,7 C 2,7 km/h (1 Bft)
10.07.2013 20:25 20,7 C 56 % 1019,1 hPa 0,0 l/m 2,3 km/h (1 Bft) O 90 11,6 C 24,4 C 1,8 km/h (1 Bft)
10.07.2013 20:30 20,4 C 59 % 1019,1 hPa 0,0 l/m 2,3 km/h (1 Bft) NO 45 12,1 C 23,7 C 4,0 km/h (1 Bft)
10.07.2013 20:35 20,1 C 61 % 1019,1 hPa 0,0 l/m 2,4 km/h (1 Bft) O 90 12,3 C 23,3 C 3,7 km/h (1 Bft)
10.07.2013 20:40 19,5 C 65 % 1019,1 hPa 0,0 l/m 3,1 km/h (1 Bft) O-NO 67 12,7 C 22,4 C 4,8 km/h (1 Bft)
10.07.2013 20:45 19,2 C 66 % 1018,9 hPa 0,0 l/m 3,4 km/h (1 Bft) O 90 12,7 C 21,8 C 4,3 km/h (1 Bft)
10.07.2013 20:50 18,7 C 69 % 1018,9 hPa 0,0 l/m 4,3 km/h (1 Bft) O-NO 67 12,9 C 21,0 C 4,2 km/h (1 Bft)
10.07.2013 20:55 18,2 C 71 % 1018,9 hPa 0,0 l/m 3,9 km/h (1 Bft) O-NO 67 12,9 C 20,3 C 4,2 km/h (1 Bft)
10.07.2013 21:00 18,1 C 71 % 1018,9 hPa 0,0 l/m 3,5 km/h (1 Bft) O-NO 67 12,8 C 19,3 C 3,7 km/h (1 Bft)
10.07.2013 21:05 18,0 C 71 % 1019,2 hPa 0,0 l/m 3,7 km/h (1 Bft) O-NO 67 12,7 C 18,5 C 4,2 km/h (1 Bft)
10.07.2013 21:10 17,6 C 73 % 1019,2 hPa 0,0 l/m 3,7 km/h (1 Bft) O-NO 67 12,7 C 17,7 C 3,2 km/h (1 Bft)
10.07.2013 21:15 17,4 C 73 % 1019,2 hPa 0,0 l/m 3,7 km/h (1 Bft) O-NO 67 12,5 C 17,2 C 3,5 km/h (1 Bft)
10.07.2013 21:20 17,1 C 73 % 1019,2 hPa 0,0 l/m 4,0 km/h (1 Bft) O 90 12,2 C 16,9 C 5,1 km/h (1 Bft)
10.07.2013 21:25 17,0 C 73 % 1019,2 hPa 0,0 l/m 4,2 km/h (1 Bft) O 90 12,1 C 16,8 C 4,3 km/h (1 Bft)
10.07.2013 21:30 16,8 C 74 % 1019,2 hPa 0,0 l/m 4,0 km/h (1 Bft) O 90 12,1 C 16,6 C 4,5 km/h (1 Bft)
10.07.2013 21:35 16,6 C 75 % 1019,2 hPa 0,0 l/m 4,0 km/h (1 Bft) O 90 12,1 C 16,4 C 4,5 km/h (1 Bft)
10.07.2013 21:40 16,0 C 76 % 1019,2 hPa 0,0 l/m 3,5 km/h (1 Bft) O 90 11,8 C 16,0 C 2,9 km/h (1 Bft)
10.07.2013 21:45 16,0 C 76 % 1019,4 hPa 0,0 l/m 2,7 km/h (1 Bft) O 90 11,8 C 16,0 C 2,1 km/h (1 Bft)
10.07.2013 21:50 15,9 C 78 % 1019,4 hPa 0,0 l/m 1,8 km/h (1 Bft) O 90 12,1 C 15,8 C 3,2 km/h (1 Bft)
10.07.2013 21:55 15,9 C 77 % 1019,4 hPa 0,0 l/m 1,4 km/h (1 Bft) O-SO 112 11,9 C 15,7 C 0,0 km/h (0 Bft)
10.07.2013 22:00 15,8 C 77 % 1019,4 hPa 0,0 l/m 1,0 km/h (0 Bft) O-SO 112 11,8 C 15,6 C 2,1 km/h (1 Bft)
10.07.2013 22:05 15,7 C 77 % 1019,5 hPa 0,0 l/m 0,8 km/h (0 Bft) O-SO 112 11,7 C 15,5 C 1,8 km/h (1 Bft)
10.07.2013 22:10 15,6 C 77 % 1019,5 hPa 0,0 l/m 1,3 km/h (1 Bft) O 90 11,6 C 15,4 C 0,0 km/h (0 Bft)
10.07.2013 22:15 15,5 C 77 % 1019,5 hPa 0,0 l/m 1,0 km/h (0 Bft) O 90 11,5 C 15,4 C 1,8 km/h (1 Bft)
10.07.2013 22:20 15,5 C 77 % 1019,5 hPa 0,0 l/m 0,3 km/h (0 Bft) O 90 11,5 C 15,2 C 1,9 km/h (1 Bft)
10.07.2013 22:25 15,4 C 77 % 1019,4 hPa 0,0 l/m 0,3 km/h (0 Bft) O 90 11,4 C 15,2 C 0,0 km/h (0 Bft)
10.07.2013 22:30 15,3 C 77 % 1019,4 hPa 0,0 l/m 0,0 km/h (0 Bft) O-SO 112 11,3 C 15,0 C 0,0 km/h (0 Bft)
10.07.2013 22:35 15,2 C 77 % 1019,4 hPa 0,0 l/m 0,0 km/h (0 Bft) O-SO 112 11,2 C 14,9 C 0,0 km/h (0 Bft)
10.07.2013 22:40 15,1 C 77 % 1019,4 hPa 0,0 l/m 0,0 km/h (0 Bft) O-SO 112 11,1 C 14,8 C 0,0 km/h (0 Bft)
10.07.2013 22:45 15,1 C 77 % 1019,4 hPa 0,0 l/m 0,0 km/h (0 Bft) O-SO 112 11,1 C 14,8 C 0,0 km/h (0 Bft)
10.07.2013 22:50 15,0 C 77 % 1019,4 hPa 0,0 l/m 0,0 km/h (0 Bft) SO 135 11,0 C 14,7 C 0,0 km/h (0 Bft)
10.07.2013 22:55 14,9 C 78 % 1019,4 hPa 0,0 l/m 0,0 km/h (0 Bft) W-NW 292 11,1 C 14,6 C 0,0 km/h (0 Bft)
10.07.2013 23:00 15,2 C 79 % 1019,4 hPa 0,0 l/m 0,0 km/h (0 Bft) NO 45 11,6 C 14,6 C 0,0 km/h (0 Bft)
10.07.2013 23:05 15,2 C 79 % 1019,6 hPa 0,0 l/m 0,2 km/h (0 Bft) W-SW 247 11,6 C 14,6 C 0,0 km/h (0 Bft)
10.07.2013 23:10 14,9 C 79 % 1019,6 hPa 0,0 l/m 0,8 km/h (0 Bft) O 90 11,3 C 14,5 C 2,9 km/h (1 Bft)
10.07.2013 23:15 15,0 C 79 % 1019,6 hPa 0,0 l/m 1,0 km/h (0 Bft) O 90 11,4 C 14,5 C 1,8 km/h (1 Bft)
10.07.2013 23:20 14,9 C 79 % 1019,6 hPa 0,0 l/m 1,1 km/h (1 Bft) O 90 11,3 C 14,4 C 1,8 km/h (1 Bft)
10.07.2013 23:25 14,9 C 79 % 1019,4 hPa 0,0 l/m 1,4 km/h (1 Bft) O 90 11,3 C 14,4 C 3,4 km/h (1 Bft)
10.07.2013 23:30 15,0 C 79 % 1019,4 hPa 0,0 l/m 1,3 km/h (1 Bft) O-SO 112 11,4 C 14,5 C 0,0 km/h (0 Bft)
10.07.2013 23:35 15,0 C 79 % 1019,4 hPa 0,0 l/m 1,3 km/h (1 Bft) S 180 11,4 C 14,6 C 1,8 km/h (1 Bft)
10.07.2013 23:40 15,0 C 79 % 1019,4 hPa 0,0 l/m 1,1 km/h (1 Bft) O 90 11,4 C 14,7 C 2,4 km/h (1 Bft)
10.07.2013 23:45 15,1 C 78 % 1019,5 hPa 0,0 l/m 0,8 km/h (0 Bft) S-SW 202 11,3 C 14,8 C 0,0 km/h (0 Bft)
10.07.2013 23:50 15,1 C 78 % 1019,5 hPa 0,0 l/m 0,3 km/h (0 Bft) W-SW 247 11,3 C 15,0 C 0,0 km/h (0 Bft)
10.07.2013 23:55 15,2 C 78 % 1019,5 hPa 0,0 l/m 0,5 km/h (0 Bft) W-SW 247 11,4 C 15,1 C 0,0 km/h (0 Bft)
_ Min-Zeit 02:45 15:35 21:00 - 23:00 - - 22:50 05:45 23:55
Minimum _ 13,6 C 41 % 1018,9 hPa - 0,0 km/h (0 Bft) - - 11,0 C 13,4 C 0,0 km/h (0 Bft)
_ Max-Zeit 13:45 02:55 00:00 17:05 13:25 - - 07:40 17:55 14:00
Maximum _ 26,9 C 90 % 1023,1 hPa 0,7 l/m 6,6 km/h
W-NW (2 Bft)
- - 17,1 C 29,4 C 11,9 km/h
W-SW (2 Bft)
Durchschnitt _ 19,7 C 67 % 1021,1 hPa #0,7 l/m 1,8 km/h (1 Bft) W-SW - 12,9 C 20,9 C 2,5 km/h (1 Bft)